TimeEDT,TemperatureF,Dew PointF,Humidity,Sea Level PressureIn,VisibilityMPH,Wind Direction,Wind SpeedMPH,Gust SpeedMPH,PrecipitationIn,Events,Conditions,WindDirDegrees,DateUTC
12:53 AM,50.0,42.1,74,29.96,10.0,West,5.8,-,N/A,,Overcast,260,2012-10-22 04:53:00
1:53 AM,51.1,42.1,71,29.97,10.0,West,8.1,-,N/A,,Overcast,280,2012-10-22 05:53:00
2:53 AM,51.1,42.1,71,29.97,10.0,WSW,8.1,-,N/A,,Overcast,250,2012-10-22 06:53:00
3:53 AM,50.0,42.1,74,29.97,10.0,WSW,5.8,-,N/A,,Overcast,240,2012-10-22 07:53:00
4:53 AM,50.0,42.1,74,29.98,10.0,WSW,6.9,-,N/A,,Mostly Cloudy,240,2012-10-22 08:53:00
5:53 AM,48.9,43.0,80,30.00,10.0,WSW,8.1,-,N/A,,Clear,250,2012-10-22 09:53:00
6:53 AM,46.9,43.0,86,30.01,10.0,SW,6.9,-,N/A,,Clear,230,2012-10-22 10:53:00
8:53 AM,51.1,45.0,80,30.04,10.0,West,13.8,-,N/A,,Clear,260,2012-10-22 12:53:00
9:53 AM,52.0,44.1,74,30.04,10.0,WNW,15.0,20.7,N/A,,Clear,290,2012-10-22 13:53:00
10:53 AM,55.0,43.0,64,30.04,10.0,WNW,13.8,20.7,N/A,,Clear,290,2012-10-22 14:53:00
11:53 AM,55.0,44.1,67,30.05,10.0,West,12.7,21.9,N/A,,Clear,270,2012-10-22 15:53:00
12:53 PM,57.0,44.1,62,30.04,10.0,WNW,10.4,21.9,N/A,,Mostly Cloudy,290,2012-10-22 16:53:00
1:53 PM,57.0,43.0,59,30.02,10.0,West,11.5,-,N/A,,Partly Cloudy,280,2012-10-22 17:53:00
2:53 PM,57.9,43.0,58,30.02,10.0,WNW,12.7,21.9,N/A,,Mostly Cloudy,290,2012-10-22 18:53:00
3:53 PM,57.9,42.1,56,30.02,10.0,WNW,10.4,-,N/A,,Overcast,290,2012-10-22 19:53:00
4:53 PM,57.0,43.0,59,30.03,10.0,West,9.2,-,N/A,,Mostly Cloudy,280,2012-10-22 20:53:00
5:53 PM,55.0,43.0,64,30.04,10.0,WNW,5.8,-,N/A,,Partly Cloudy,300,2012-10-22 21:53:00
6:53 PM,50.0,42.1,74,30.06,10.0,West,3.5,-,N/A,,Partly Cloudy,260,2012-10-22 22:53:00
7:53 PM,46.9,42.1,83,30.07,10.0,SW,5.8,-,N/A,,Clear,220,2012-10-22 23:53:00
8:53 PM,48.9,43.0,80,30.08,10.0,SW,5.8,-,N/A,,Clear,230,2012-10-23 00:53:00
9:53 PM,46.0,42.1,86,30.09,10.0,West,3.5,-,N/A,,Clear,260,2012-10-23 01:53:00
10:53 PM,45.0,42.1,90,30.09,10.0,Calm,Calm,-,N/A,,Clear,0,2012-10-23 02:53:00
11:53 PM,42.1,39.9,92,30.09,10.0,Calm,Calm,-,N/A,,Clear,0,2012-10-23 03:53:00